User: anonymous   Login
Location: Unspecified
(0.0000°N, 0.0000°E)
Time: 05:08:44
(UTC+02:00)
Language:

Iridium 39 - Orbit

View from above orbital plane
View from above orbital plane
View from above satellite
View from above satellite

Ground track
Ground track

The orbit data is extracted from the following two-line orbital elements,

1 25042U 97069D   15087.24578298  .00000740  00000-0  25707-3 0  9995
2 25042 086.4036 001.5577 0002344 080.1134 280.0327 14.34218384909937
Epoch (UTC): 28 March 2015 05:53:55
Eccentricity: 0.0002344
inclination: 86.4036°
perigee height: 776 km
apogee height: 779 km
right ascension of ascending node: 1.5577°
argument of perigee: 80.1134°
revolutions per day: 14.34218384
mean anomaly at epoch: 280.0327°
orbit number at epoch: 90993

The dashed part of the orbit path shows where the satellite is in the earth's shadow,  

DLR